FW5912 Weather Reports


Display with metric or nautical units.
time (UTC)temp
F
wind
direction
speed
MPH
gust
MPH
rain 1hr
in
rain 24hr
in
rain mn
in
humidity
%
barometer
mb
20260508021556 75 53 6.0 14.0 0.00 0.00 0.00 82 1015.0
20260508020106 75 62 6.0 13.0 0.00 0.00 0.00 82 1015.0
20260508014557 75 64 8.0 14.0 0.00 0.00 0.00 82 1014.9
20260508013057 75 44 7.0 13.0 0.00 0.00 0.00 82 1014.9
20260508011556 74 55 7.0 12.0 0.00 0.00 0.00 83 1014.4
20260508010116 74 40 4.0 10.0 0.00 0.00 0.00 83 1014.5
20260508004556 74 49 7.0 13.0 0.00 0.00 0.00 84 1014.1
20260508003103 74 64 6.0 12.0 0.00 0.00 0.00 84 1014.3
20260508001558 74 57 4.0 11.0 0.00 0.00 0.00 84 1014.3
20260508000054 74 45 6.0 11.0 0.00 0.00 0.00 83 1014.2
20260507234558 74 67 4.0 11.0 0.00 0.00 0.00 83 1014.3
20260507233054 74 57 6.0 10.0 0.00 0.00 0.00 83 1014.3
20260507231556 74 78 5.0 10.0 0.00 0.00 0.00 82 1014.2
20260507230109 75 65 6.0 10.0 0.00 0.00 0.00 80 1014.2
20260507224556 75 40 6.0 10.0 0.00 0.00 0.00 80 1014.3
20260507223157 74 346 6.0 12.0 0.00 0.00 0.00 81 1014.1
20260507221555 73 36 9.0 13.0 0.00 0.00 0.00 81 1014.3
20260507220053 73 15 9.0 15.0 0.00 0.00 0.00 81 1014.5
20260507214559 72 39 6.0 12.0 0.00 0.00 0.00 81 1014.6
20260507213122 72 43 9.0 15.0 0.00 0.00 0.00 81 1014.5
20260507211556 71 330 10.0 15.0 0.00 0.00 0.00 82 1014.7
20260507204555 70 336 10.0 15.0 0.00 0.00 0.00 82 1015.0
20260507203059 70 324 8.0 15.0 0.00 0.00 0.00 83 1015.2
20260507201619 69 16 8.0 15.0 0.00 0.00 0.00 83 1015.4
20260507200108 69 45 10.0 16.0 0.00 0.00 0.00 84 1015.5
20260507194557 68 60 10.0 17.0 0.00 0.00 0.00 85 1015.6
20260507193055 68 32 11.0 17.0 0.00 0.00 0.00 85 1015.7
20260507191557 68 40 9.0 16.0 0.00 0.00 0.00 86 1015.9
20260507190057 68 9 7.0 15.0 0.00 0.00 0.00 86 1015.8
20260507184558 67 65 12.0 17.0 0.00 0.00 0.00 85 1015.9
20260507183059 67 17 11.0 18.0 0.00 0.00 0.00 85 1016.2
20260507181605 68 352 11.0 15.0 0.00 0.00 0.00 85 1016.3
20260507180055 68 24 11.0 18.0 0.00 0.00 0.00 85 1016.5
20260507174602 68 47 13.0 19.0 0.00 0.00 0.00 85 1016.3
20260507173101 68 51 11.0 17.0 0.00 0.00 0.00 86 1016.3
20260507171603 67 29 11.0 20.0 0.00 0.00 0.00 86 1016.4
20260507170055 66 39 14.0 21.0 0.00 0.00 0.00 86 1016.4
20260507164553 67 16 11.0 21.0 0.00 0.00 0.00 87 1016.6
20260507163057 67 333 12.0 20.0 0.00 0.00 0.00 86 1016.3
20260507161608 67 30 11.0 19.0 0.00 0.00 0.00 87 1016.2
20260507160058 66 24 12.0 19.0 0.00 0.00 0.00 88 1016.1
20260507154555 66 336 12.0 25.0 0.00 0.00 0.00 88 1016.4
20260507153112 67 352 10.0 19.0 0.00 0.00 0.00 88 1016.6
20260507151602 67 38 11.0 20.0 0.00 0.00 0.00 88 1016.1
20260507144554 66 44 15.0 23.0 0.00 0.00 0.00 88 1016.0
20260507143058 67 344 13.0 20.0 0.00 0.00 0.00 88 1016.1
20260507141605 67 33 14.0 24.0 0.00 0.00 0.00 88 1016.0
20260507140057 67 34 14.0 24.0 0.00 0.00 0.00 88 1016.2
20260507134606 67 32 13.0 21.0 0.00 0.00 0.00 88 1016.1
20260507133111 68 20 10.0 17.0 0.00 0.00 0.00 89 1016.2
20260507131556 68 19 9.0 16.0 0.00 0.00 0.00 89 1015.8
20260507130107 68 19 8.0 14.0 0.00 0.00 0.00 89 1015.9
20260507124615 68 38 9.0 14.0 0.00 0.00 0.00 89 1015.7
20260507123107 68 33 5.0 15.0 0.00 0.00 0.00 89 1015.3
20260507121602 68 42 9.0 16.0 0.00 0.00 0.00 89 1015.0
20260507120057 69 55 8.0 16.0 0.00 0.00 0.00 89 1014.9
20260507114555 69 32 12.0 19.0 0.00 0.00 0.00 89 1014.6
20260507113055 69 24 11.0 19.0 0.00 0.00 0.00 89 1014.6
20260507111555 69 348 12.0 19.0 0.00 0.00 0.00 89 1014.4
20260507110056 70 21 12.0 19.0 0.00 0.00 0.00 89 1014.3
20260507104556 70 324 14.0 20.0 0.00 0.00 0.00 90 1014.1
20260507103051 70 313 14.0 19.0 0.00 0.00 0.00 91 1013.8
20260507101600 70 43 10.0 17.0 0.00 0.00 0.00 91 1013.8
20260507094555 70 336 13.0 21.0 0.00 0.00 0.00 90 1013.9
20260507093057 70 334 13.0 21.0 0.00 0.00 0.00 90 1013.8
20260507091558 71 18 12.0 20.0 0.00 0.00 0.00 90 1013.3
20260507090054 71 300 9.0 15.0 0.00 0.00 0.00 91 1013.2
20260507084557 71 306 7.0 16.0 0.00 0.00 0.00 91 1013.1
20260507083108 71 323 9.0 17.0 0.00 0.00 0.00 92 1013.0
20260507081559 72 319 7.0 14.0 0.00 0.00 0.00 93 1013.0
20260507080053 72 330 10.0 15.0 0.00 0.00 0.00 93 1013.1
20260507074611 72 306 12.0 18.0 0.00 0.00 0.00 93 1013.2
20260507073100 72 344 11.0 15.0 0.00 0.00 0.00 93 1013.1
20260507071554 72 284 11.0 15.0 0.00 0.00 0.00 93 1013.3
20260507070055 73 292 7.0 13.0 0.00 0.00 0.00 93 1013.3
20260507064602 73 304 7.0 12.0 0.00 0.00 0.00 92 1013.4
20260507063056 74 293 7.0 13.0 0.00 0.00 0.00 92 1013.4
20260507061556 77 311 5.0 10.0 0.00 0.00 0.00 92 1013.2
20260507060058 77 0 0.0 0.0 0.00 0.00 0.00 93 1013.1
20260507054558 77 0 0.0 1.0 0.00 0.00 0.00 93 1013.1
20260507053059 77 282 0.0 4.0 0.00 0.00 0.00 93 1013.2
20260507051555 77 0 1.0 3.0 0.00 0.00 0.00 93 1013.1
20260507050058 77 298 2.0 3.0 0.00 0.00 0.00 93 1013.2
20260507044558 77 201 0.0 3.0 0.00 0.00 0.00 93 1013.3
20260507043058 77 201 3.0 5.0 0.00 0.00 0.00 93 1012.9
20260507041555 77 225 1.0 4.0 0.00 0.00 0.00 93 1013.1
20260507040052 77 192 2.0 6.0 0.00 0.00 0.00 93 1013.0
20260507034552 77 187 5.0 8.0 0.00 0.00 0.00 93 1012.4
20260507033054 77 163 4.0 8.0 0.00 0.00 0.00 93 1012.1
20260507031551 77 144 6.0 10.0 0.00 0.00 0.00 93 1012.0
20260507030054 77 186 6.0 8.0 0.00 0.00 0.00 93 1012.0
20260507024603 77 145 4.0 7.0 0.00 0.00 0.00 93 1011.9
20260507023054 77 126 4.0 9.0 0.00 0.00 0.00 93 1011.9